Location: Plainartige
(45.6866°N, 1.7993°E)
Time: 17:15:33
(UTC+00:00)

Tiros 1 - Pass Details

Date: 31 May 2022
Orbit: 629 x 663 km, 48.4° (Epoch: 05 July)

Event Time Altitude Azimuth Distance (km) Brightness Sun altitude
Exits shadow 01:17:27 - 274° (W) 2,300 9.8 -19.6°
Reaches altitude 10° 01:18:13 10° 275° (W) 2,010 9.5 -19.5°
Maximum altitude 01:22:48 62° 357° (N) 716 7.6 -19.2°
Drops below altitude 10° 01:27:25 10° 78° (ENE) 2,026 10.2 -18.9°
Sets 01:29:47 0° 82° (E) 2,941 11.0 -18.8°
